User: anonymous   Login
Location: Blandford
(50.8667°N, 2.1667°W)
Time: 16:49:51
(UTC+00:00)
Language:

Cosmos 2344 - Orbit

View from above orbital plane
View from above orbital plane
View from above satellite
View from above satellite

Ground track
Ground track

The orbit data is extracted from the following two-line orbital elements,

1 24827U 97028A   20184.89121179 -.00000233 +00000-0 -23173-2 0  9990
2 24827 063.3209 250.2648 1024611 042.1647 120.6922 11.07946413933535
Epoch (UTC): 02 July 2020 21:23:20
Eccentricity: 0.1024611
inclination: 63.3209°
perigee height: 1250 km
apogee height: 2992 km
right ascension of ascending node: 250.2648°
argument of perigee: 42.1647°
revolutions per day: 11.07946413
mean anomaly at epoch: 120.6922°
orbit number at epoch: 93353

The dashed part of the orbit path shows where the satellite is in the earth's shadow,  

DLR